Regional Weather Roundup
Issued by NWS

Home | Current Version | Previous Version | Text Only | Print | Product List | Glossary Off
Versions: 1 2 3 4 5 6 7 8 9 10 11 12 13 14 15 16 17 18 19 20 21 22 23 24 25 26 27 28 29 30 31 32 33 34 35 36 37 38 39 40 41 42 43 44 45 46 47 48 49 50

099
ASUS45 KSLC 250710
RWRUT

UTAH REGIONAL WEATHER ROUNDUP
NATIONAL WEATHER SERVICE SALT LAKE CITY UT
100 AM MDT THU MAY 25 2017

UTZ001>011-023>025-250800-

NORTHERN UTAH

CITY           SKY/WX    TMP DP  RH WIND       PRES   REMARKS
BRIGHAM CITY   MOCLDY    60  35  39 NW15      29.61R
HILL AFB       MOCLDY    60  40  47 NW16      29.60R
LOGAN          MOCLDY    58  37  45 N13       29.62R
OGDEN          MOCLDY    59  40  49 NW14      29.58R
SALT LAKE CITY MOCLDY    64  46  52 NW13      29.56S
TOOELE VALLEY  MOCLDY    59  46  63 NW6       29.62R
WENDOVER       MOCLDY    63  21  20 NW21G35   29.63R
HEBER CITY     PTCLDY    48  43  81 E3        29.61F
WEST JORDAN    MOCLDY    61  48  62 NW15      29.60S

$$

UTZ011>015-024>027-250800-

CENTRAL/NORTHEAST UTAH

CITY           SKY/WX    TMP DP  RH WIND       PRES   REMARKS
PROVO AIRPORT  MOCLDY    61  47  59 CALM      29.56F
MOAB/CANYONLAN PTCLDY    70  34  26 W13       29.59S
DELTA          CLOUDY    72  28  20 SW14G20   29.59F
PRICE          CLOUDY    62  36  37 VRB3      29.68F
ROOSEVELT      CLOUDY    59  43  55 CALM      29.64F
VERNAL         CLOUDY    63  40  42 W8        29.61F

$$

UTZ013>016-019>022-027-250800-

SOUTHERN UTAH

CITY           SKY/WX    TMP DP  RH WIND       PRES   REMARKS
BRYCE CANYON   PTCLDY    46  24  42 W6        29.88F
CEDAR CITY     CLOUDY    66  31  27 S10       29.75F
MILFORD        CLOUDY    68  32  26 S14       29.66S
ST GEORGE      MOSUNNY   84  23  10 SW10      29.56F
HANKSVILLE     PTCLDY    70  27  19 W6        29.63R
BLANDING       PTCLDY    68  22  17 SW6       29.81S

$$

REGIONAL REPORTS     COLORADO/ARIZONA

CITY           SKY/WX    TMP DP  RH WIND       PRES   REMARKS
CRAIG, CO      CLOUDY    62  34  35 SW13      29.66R
GRAND JUNCTION PTCLDY    71  33  24 NW3       29.60R
RIFLE, CO      LGT RAIN  71  33  24 W16G56    29.65R SQUALL
MONTROSE, CO   CLEAR     63  27  25 E8        29.70S
CORTEZ, CO     PTCLDY    73  23  15 W20G31    29.76F
COLORADO CITY    N/A     70  23  17 CALM      29.76S
PAGE, AZ       PTCLDY    77  26  15 SW6       29.65F
GRAND CANYON   MOCLDY    61  15  16 S7        29.91S
KINGMAN, AZ    MOCLDY    77  18  11 SW15      29.70F
FLAGSTAFF, AZ  PTCLDY    64   5   9 SW12G25   29.96F

$$

REGIONAL REPORTS    NEVADA/IDAHO/WYOMING

CITY           SKY/WX    TMP DP  RH WIND       PRES   REMARKS
LAS VEGAS, NV  PTCLDY    85  30  13 SW14G24   29.53F
ELY, NY        MOCLDY    57  27  31 CALM      29.74S
ELKO, NV       CLOUDY    56  36  47 N5        29.73S
POCATELLO, ID  CLOUDY    56  25  30 SW20      29.62R
BURLEY, ID     CLOUDY    55  25  31 W16       29.65R
FORT BRIDGER,    N/A     50  42  73 W10       29.70S
EVANSTON, WY   CLOUDY    50  43  77 N7        29.70S
ROCK SPRINGS,  CLOUDY    51  42  71 SE5       29.67F
KEMMERER, WY     N/A     45  41  87 NW10      29.71R

$$




USA.gov is the U.S. government's official web portal to all federal, state and local government web resources and services.